Regional Weather Roundup
Issued by NWS Grand Forks, ND

Home | Current Version | Previous Version | Graphics & Text | Print | Product List | Glossary Off
Versions: 1 2 3 4 5 6 7 8 9 10 11 12 13 14 15 16 17 18 19 20 21 22 23 24 25 26 27 28 29 30 31 32 33 34 35 36 37 38 39 40 41 42 43 44 45 46 47 48 49 50

000
ASUS43 KFGF 070131
RWRFGF
PRAIRIE TO PINES  WEATHER ROUNDUP
NATIONAL WEATHER SERVICE EASTERN NORTH DAKOTA/GRAND FORKS ND
700 PM CST SAT FEB 06 2016

 **SATELLITE DATA USED TO AUGMENT SKY COVER AT AUTOMATED STATIONS**
 *****  WEATHER ACROSS EASTERN NORTH DAKOTA  *****

CITY           SKY/WX    TMP DP  RH WIND       PRES   REMARKS
GRAND FORKS    CLOUDY    40  32  73 SW13      29.52F
GRAND FRKS AFB CLOUDY    41  33  74 W13       29.51F
GRAND FRKS NWS   N/A     37 N/A N/A SW6         N/A
DEVILS LAKE    CLEAR     39  32  76 SW15      29.54F
FARGO          CLOUDY    39  32  76 SW12      29.64F
WAHPETON ARPT  CLOUDY    36  32  87 W12       29.70F
$$

 ***** WEATHER ACROSS CENTRAL AND WESTERN NORTH DAKOTA  *****

CITY           SKY/WX    TMP DP  RH WIND       PRES   REMARKS
BISMARCK       CLEAR     47  23  38 W12       29.70S
MINOT          LGT RAIN  42  32  67 W25G33    29.58R
JAMESTOWN      PTCLDY    36  32  85 SW7       29.63F
MINOT AFB      DRIZZLE   42  35  76 W26G33    29.55R
GARRISON         N/A     45  25  45 W29G39    29.62S
WILLISTON      CLOUDY    41  31  67 W17G24    29.73R
DICKINSON      MOCLDY    40  23  50 W26G36    29.75R
HETTINGER      PTCLDY    42  18  37 W32G47    29.83R
$$

 *****  OTHER AIRPORT OBSERVATIONS IN OUR AREA  *****

CITY           SKY/WX    TMP DP  RH WIND       PRES   REMARKS
WALHALLA       FAIR      41  34  75 W16G26    29.46F
GRAFTON AIRPOR MOCLDY    37  34  87 W10       29.52R
VALLEY CITY AR FAIR      37  37 100 W13       29.64F
CANDO          FAIR      37  32  81 W18       29.52F
CAVALIER APRT  FAIR      41  32  70 W18       29.47S
GWINNER          N/A     36  34  93 SW14      29.70S
SHEYENNE NWR     N/A     41  38  90 NW5       29.95S
ROLLA          FAIR      37  30  75 W15       29.47F
 ***** THE ABOVE OBSERVATIONS ARE NON NWS ARE NOT QUALITY
       CONTROLLED AND MAY MIS-REPORT RAIN FOR SNOW...
$$

  *****  WEATHER ACROSS NORTHERN MINNESOTA  *****

CITY           SKY/WX    TMP DP  RH WIND       PRES   REMARKS
FLAG ISLAND    LGT SNOW  28  28 100 SE7       29.54F WCI  21
WARROAD        CLOUDY    30  27  86 SE7       29.53F WCI  23
ROSEAU         CLOUDY    34  28  80 S12       29.52F
HALLOCK        CLOUDY    34  30  86 S13       29.48F WCI  25
THF RVR FALLS  CLOUDY    37  30  75 SW14      29.55F
BAUDETTE       CLOUDY    32  27  81 SE8       29.57F WCI  25
WASKISH        CLOUDY    36  27  69 SE7       29.58F
CROOKSTON      MOCLDY    36  32  87 SW10      29.56F
STEPHEN NDAWN    N/A     36  32  87 S12         N/A
GREENBUSH NDAW   N/A     34  30  86 S9          N/A
$$
  *****  WEATHER ACROSS CENTRAL AND WEST MINNESOTA  *****

CITY           SKY/WX    TMP DP  RH WIND       PRES   REMARKS
FOSSTON        CLOUDY    34  30  86 S17       29.60F WCI  23
BEMIDJI        CLOUDY    35  28  75 S7        29.60F
PARK RAPIDS    CLOUDY    36  28  73 SW13      29.65S
ELBOW LAKE     RAIN      33  32  94 W10       29.75F
WADENA         CLOUDY    34  30  86 SW13      29.68F WCI  25
DETROIT LAKES  PTCLDY    37  32  81 SW14G22   29.67F
MOORHEAD       CLOUDY    37  34  87 SW10      29.65F
FERGUS FALLS   DRIZZLE   34  34 100 SW9       29.75F
MORRIS MN      PTCLDY    36  30  80 SW10      29.77R
STAPLES        LGT RAIN  36  30  80 SW10G18   29.72R
$$
  *****  WEATHER ELSEWHERE ACROSS MINNESOTA  *****

CITY           SKY/WX    TMP DP  RH WIND       PRES   REMARKS
DULUTH         CLOUDY    32  24  72 S15       29.72F WCI  22
INTRNTL FALLS  LGT SNOW  31  29  92 SE7       29.61F FOG     WCI  24
ELY            LGT SNOW  28  27  93 S9        29.68F WCI  20
CLOQUET        CLOUDY    34  25  69 S12G17    29.72F
WHEATON        LGT RAIN  37  34  87 SW8       29.77F
BRAINERD       CLOUDY    35  26  69 S13       29.70F
HIBBING        CLOUDY    32  24  72 S6        29.67F
ALEXANDRIA     LGT SNOW  34  30  85 W21G26    29.77R FOG     WCI  22
SAINT CLOUD    CLOUDY    35  27  72 S15       29.78S
MINNEAPOLIS    CLOUDY    36  26  67 S14G22    29.85F
$$

  *****  WEATHER ACROSS SOUTH DAKOTA  *****

CITY           SKY/WX    TMP DP  RH WIND       PRES   REMARKS
SIOUX FALLS    CLOUDY    33  26  75 SW9       29.85F
BROOKINGS      CLOUDY    33  27  78 S5        29.81S
WATERTOWN      PTCLDY    33  27  78 SW10      29.78R WCI  25
HURON          CLOUDY    37  31  78 S7        29.80S
SISSETON         N/A     38  31  76 W18G28    29.74R
ABERDEEN       MOCLDY    37  31  78 S12       29.76F
MITCHELL       CLOUDY    40  32  73 SW9       29.83S
PIERRE         CLOUDY    44  29  55 W14       29.86R
MOBRIDGE       CLOUDY    47  22  37 W15       29.75R
RAPID CITY     MOCLDY    39  27  62 NW38G53   29.93R
$$

  *****  SOME WEATHER IN NEARBY STATES *****

CITY           SKY/WX    TMP DP  RH WIND       PRES   REMARKS
GLASGOW MT     MOCLDY    36  28  73 W24G37    29.90R
GREAT FALLS MT MOCLDY    36  16  44 W17G31    30.11R
CHEYENNE WY    CLOUDY    37  18  46 W14G24    30.07S
SCOTTSBLUFF NE CLOUDY    40  24  53 W23G35    30.00S
OMAHA NE       CLOUDY    40  28  62 S12       30.01F
DES MOINES IA  CLOUDY    35  30  82 S10       30.04F
DAVENPORT IA   CLEAR     33  29  85 CALM      30.12F
CHICAGO IL     CLEAR     33  27  78 S6        30.12F
EAU CLAIRE WI  CLOUDY    32  23  69 S13       29.90F WCI  22
LA CROSSE WI   CLOUDY    30  24  78 S14       30.00F WCI  19
$$

  *****  SOME NATIONAL WEATHER *****

CITY           SKY/WX    TMP DP  RH WIND       PRES   REMARKS
LA GUARDIA NY  CLOUDY    39  20  46 SW8       30.29S
RALEIGH NC     CLOUDY    38  24  57 CALM      30.31S
ATLANTA GA     PTCLDY    44  19  36 N9        30.23R
NEW ORLEANS LA MOCLDY    49  26  41 W3        30.27R
OKLAHOMA CITY  CLOUDY    41  26  55 S6        30.28R
ALBUQUERQUE NM CLOUDY    47  13  25 N9        30.34R
SALT LAKE CITY MOCLDY    32  25  75 NW3       30.45S
LOS ANGELES CA CLEAR     68  27  21 SW5       30.14S
BOISE ID       CLOUDY    41  32  70 NW7       30.43R
SEATTLE WA     MOCLDY    47  39  74 CALM      30.45S
$$

*** WEATHER ACROSS MANITOBA...SASKATCHEWAN AND ONTARIO ***
                ***ONTARIO***

CITY           SKY/WX    TMP DP  RH WIND       PRES   REMARKS
GERALDTON      PTCLDY    -2 -11  65 E7        29.98S WCI -16
THUNDER BAY    FLURRIES  19  18  93 E14       29.87F WCI   6
SIOUX LOOKOUT  LGT SNOW  16  14  93 E8        29.72F VSB 1   WCI   5
TORONTO        MOCLDY    34  21  60 SW14      30.14R WCI  24
BIG TROUT LK   CLEAR    -17 -26  63 SE6       30.01S WCI -31
PICKLE LAKE    CLOUDY    -2 -13  60 SE15      29.86F WCI -22
DRYDEN         LGT SNOW  23  19  86 E10G20    29.65F WCI  12
KENORA         LGT SNOW  25  23  93 SE10G17   29.57F DRFTSNOWWCI  15
$$
                *** MANITOBA***

CITY           SKY/WX    TMP DP  RH WIND       PRES   REMARKS
BRANDON        MOCLDY    37  30  75 W15       29.40F
DAUPHIN        CLEAR     23  23 100 W9        29.37R WCI  13
ISLAND LAKE    CLOUDY     0  -8  71 E7G18     29.75F WCI -13
PILOT MOUND      N/A     39  32  75 W10         N/A
THE PAS        LGT SNOW  14  10  85 E6        29.49S WCI   5
THOMPSON       LGT SNOW  -6 -11  77 E9G18     29.71  DRFTSNOWWCI -22
WINNIPEG       MOCLDY    30  27  86 S14       29.45F WCI  20
LYNN LAKE      LGT SNOW  -4  -8  84 E10       29.59S WCI -21
CHURCHILL      PTCLDY   -29 -36  68 SE10      30.11S WCI -53
GILLAM         MOCLDY   -18 -26  69 E8        29.94F WCI -37
$$
                ***SASKATCHEWAN***

CITY           SKY/WX    TMP DP  RH WIND       PRES   REMARKS
ESTEVAN        MOCLDY    34  32  93 W21G31    29.59R WCI  22
KINDERSLEY     PTCLDY    34  23  64 W18G26    29.77R WCI  23
LLOYDMINSTER   CLOUDY    32  27  80 NW33G49   29.67R WCI  17
PRINCE ALBERT  MOCLDY    39  28  65 NW17      29.46R
REGINA         MOCLDY    36  27  69 W31G38    29.63R
YORKTON        CLOUDY    36  30  80 NW23G31   29.42R
N. BATTLEFORD  CLOUDY    37  23  56 W32G45    29.64R
LA RONGE       LGT SNOW  16  12  86 NE13      29.43R WCI   2
SASKATOON      PTCLDY    36  23  60 W28G38    29.60R
SWIFT CURRENT  CLEAR     36  21  55 NW26G33   29.75F
$$
NOTE: THESE ARE AUTOMATED STATIONS WITH LIMITED QUALITY CONTROL
      "FAIR" INDICATES FEW OR NO CLOUDS BELOW 12,000 FEET WITH NO
      SIGNIFICANT WEATHER AND/OR OBSTRUCTIONS TO VISIBILITY.
      SKY/WX - SKY CONDITION AND SIGNIFICANT WEATHER.
      TMP - AIR TEMPERATURE.    DP   - DEWPOINT TEMPERATURE.
      RH  - RELATIVE HUMIDITY.  PRES - PRESSURE.
      HX  - HEAT INDEX.         WCI  - WIND CHILL INDEX.
$



USA.gov is the U.S. government's official web portal to all federal, state and local government web resources and services.